Home > Weather > Mechelen > Past weeks

Flag for Belgium Past Weather in Mechelen, Belgium — Yesterday and Last 2 Weeks

Now
63 °F

Light rain. Scattered clouds.


Feels Like: 63 °F
Forecast: 58 / 68 °F
Wind: 1 mph from Southwest

Location: Brussels National Airport

Current Time: Jun 29, 2016 at 10:01:22 PM

Latest Report: Jun 29, 2016 at 9:20 PM


Visibility: N/A

Pressure: 29.86 "Hg

Humidity: 83%

Dew Point: 57 °F

Location of MechelenLocation

Past Weather in Mechelen — Graph

°F

Mechelen Temperature Yesterday

Maximum temperature yesterday: 70 °F (at 3:50 PM)
Minimum temperature yesterday: 55 °F (at 4:20 AM)
Average temperature yesterday: 62 °F

High & Low Weather Summary for the Past Weeks

 TemperatureHumidityPressure
High86 °F (Jun 23, 5:20 PM)100% (Jun 22, 4:20 AM)30.30 "Hg (Jun 22, 4:20 AM)
Low48 °F (Jun 16, 3:50 AM)49% (Jun 29, 3:50 PM)29.47 "Hg (Jun 14, 8:20 PM)
Average61 °F81%29.97 "Hg
* Reported Jun 14 8:20 PM — Jun 29 8:20 PM, Mechelen, Weather by CustomWeather, © 2016

Note: Actual official high and low records may vary slightly from our data, if they occured in-between our weather recording intervals... More about our weather records

Advertising

Mechelen Weather History for the Previous 24 Hours

Scroll right to see more
 ConditionsComfort  
Time TempWeatherWind HumidityBarometerVisibility
8:20 PM
Wed, Jun 29
64 °FSunny.5 mph68%29.86 "Hg10 mi
7:50 PM64 °FSunny.5 mph68%29.89 "Hg10 mi
7:20 PM64 °FPassing clouds.5 mph68%29.89 "HgN/A
6:50 PM64 °FPassing clouds.9 mph60%29.89 "HgN/A
6:20 PM64 °FPassing clouds.13 mph60%29.89 "HgN/A
5:50 PM66 °FPassing clouds.12 mph56%29.89 "HgN/A
5:20 PM66 °FPassing clouds.12 mph60%29.89 "HgN/A
4:50 PM66 °FPassing clouds.13 mph60%29.89 "HgN/A
4:20 PM68 °FPassing clouds.13 mph53%29.92 "HgN/A
3:50 PM68 °FPassing clouds.15 mph49%29.92 "HgN/A
3:20 PM66 °FScattered clouds.13 mph52%29.92 "HgN/A
2:50 PM64 °FScattered clouds.13 mph56%29.92 "HgN/A
2:20 PM66 °FScattered clouds.14 mph56%29.92 "HgN/A
1:50 PM64 °FScattered clouds.14 mph60%29.92 "HgN/A
1:20 PM64 °FScattered clouds.14 mph60%29.92 "HgN/A
12:50 PM64 °FScattered clouds.13 mph64%29.95 "HgN/A
12:20 PM64 °FScattered clouds.12 mph60%29.95 "HgN/A
11:50 AM63 °FScattered clouds.16 mph64%29.95 "HgN/A
11:20 AM63 °FPartly sunny.15 mph64%29.92 "HgN/A
10:50 AM61 °FPartly sunny.16 mph68%29.92 "HgN/A
10:20 AM61 °FPartly sunny.16 mph72%29.92 "HgN/A
9:50 AM59 °FBroken clouds.15 mph77%29.92 "HgN/A
9:20 AM59 °FPartly sunny.13 mph77%29.92 "HgN/A
8:50 AM57 °FPartly sunny.12 mph88%29.92 "HgN/A
8:20 AM55 °FLight rain. Partly sunny.13 mph88%29.89 "HgN/A
7:50 AM57 °FPartly sunny.13 mph82%29.89 "HgN/A
7:20 AM57 °FPartly sunny.14 mph82%29.89 "HgN/A
6:50 AM55 °FPartly sunny.13 mph88%29.86 "HgN/A
6:20 AM55 °FPartly cloudy.15 mph88%29.86 "HgN/A
5:50 AM55 °FPassing clouds.14 mph88%29.86 "HgN/A
5:20 AM55 °FPassing clouds.14 mph88%29.86 "HgN/A
4:50 AM55 °FPassing clouds.13 mph88%29.86 "HgN/A
4:20 AM55 °FPartly cloudy.13 mph88%29.86 "HgN/A
3:50 AM57 °FPassing clouds.14 mph88%29.86 "HgN/A
3:20 AM57 °FPassing clouds.10 mph88%29.86 "HgN/A
2:50 AM57 °FPartly cloudy.14 mph88%29.86 "HgN/A
2:20 AM57 °FPartly cloudy.6 mph94%29.86 "HgN/A
1:50 AM57 °FLight rain. Passing clouds.6 mph94%29.86 "Hg4 mi
1:20 AM57 °FLight rain. Passing clouds.3 mph94%29.83 "HgN/A
12:50 AM57 °FLight rain. Passing clouds.No wind94%29.86 "HgN/A
12:20 AM57 °FRain. Partly cloudy.9 mph88%29.86 "Hg3 mi
11:50 PM
Tue, Jun 28
57 °FLight rain. Partly cloudy.16 mph94%29.86 "HgN/A
11:20 PM63 °FLight rain. Partly cloudy.9 mph83%29.83 "HgN/A
10:50 PM64 °FSunny.8 mph73%29.83 "Hg10 mi
10:20 PM63 °FSunny.6 mph77%29.86 "Hg10 mi
Weather by CustomWeather, © 2016

See weather overviewHow to use our weather pages